Overview Statistics Trail Chart Weather Telemetry Raw packets
 

This is the latest recevied weather packets stored in our database for station/object KD0RIH. If no packets are shown the sender has not sent any weather packets the latest 10 day(s).

<< 1 2 3 4 5 6 7 >>
Time Temp. Humidity Pressure Rain* Wind** Luminosity Snow
1788554227 36.11° C 44% 1012.9 hPa 0 mm - 646 W/m² -
1788553923 36.67° C 43% 1012.9 hPa 0 mm - 668 W/m² -
1788553619 37.22° C 41% 1013 hPa 0 mm - 681 W/m² -
1788553316 37.22° C 41% 1013.1 hPa 0 mm - 697 W/m² -
1788553016 36.67° C 43% 1013.1 hPa 0 mm - 709 W/m² -
1788552710 36.11° C 44% 1013.2 hPa 0 mm - 719 W/m² -
1788552410 36.11° C 43% 1013.3 hPa 0 mm - 732 W/m² -
1788552105 36.67° C 42% 1013.3 hPa 0 mm - 740 W/m² -
1788551804 36.67° C 42% 1013.3 hPa 0 mm - 752 W/m² -
1788551498 36.67° C 42% 1013.4 hPa 0 mm - 769 W/m² -
1788551198 36.11° C 43% 1013.4 hPa 0 mm - 780 W/m² -
1788550893 36.11° C 44% 1013.5 hPa 0 mm - 786 W/m² -
1788550592 36.67° C 43% 1013.4 hPa 0 mm - 796 W/m² -
1788550289 36.11° C 43% 1013.8 hPa 0 mm - 808 W/m² -
1788549989 35.56° C 46% 1013.8 hPa 0 mm - 814 W/m² -
1788549685 36.11° C 44% 1013.9 hPa 0 mm - 823 W/m² -
1788549381 36.11° C 45% 1013.9 hPa 0 mm - 829 W/m² -
1788549078 36.11° C 45% 1013.9 hPa 0 mm - 833 W/m² -
1788548773 36.11° C 46% 1014 hPa 0 mm - 842 W/m² -
1788548469 36.11° C 46% 1014 hPa 0 mm - 849 W/m² -
1788548166 36.11° C 46% 1014 hPa 0 mm - 853 W/m² -
1788547860 35.56° C 46% 1014 hPa 0 mm - 860 W/m² -
1788547559 35.56° C 47% 1014 hPa 0 mm - 864 W/m² -
1788547254 35.56° C 46% 1014.1 hPa 0 mm - 868 W/m² -
1788546949 35.56° C 45% 1014.1 hPa 0 mm - 867 W/m² -

* Rain latest hour (hover to see other rain measurements)
** Current wind speed in m/s (hover to see current wind gust speed)